Weather History for San Jose, Costa Rica

Change the Weather History Date:

Wednesday, July 10, 2013

  Actual Average Record
Temperature  
Mean Temperature 76 °F -  
Max Temperature 85 °F 80 °F 86 °F (1999)
Min Temperature 68 °F 65 °F 60 °F (1999)
Cooling Degree Days 12    
Growing Degree Days 26 (Base 50)    
Moisture  
Dew Point 64 °F    
Average Humidity 72    
Maximum Humidity 94    
Minimum Humidity 33    
Precipitation  
Precipitation 0.01 in 0.28 in - ()
Sea Level Pressure  
Sea Level Pressure 29.96 in    
Wind  
Wind Speed 8 mph ()    
Max Wind Speed 15 mph    
Max Gust Speed -    
Visibility 7.3 miles    
Events Fog    
Averages and records for this station are not official NWS values.
T = Trace of Precipitation, MM = Missing Value Source: Averaged Metar Reports

Daily Weather History Graph

Daily Weather History Graph

Search for Another Location

Airport:

Trip Planner

Search our weather history database for the weather conditions in past years. The results will help you decide how hot, cold, wet, or windy it might be!

Date:

Astronomy

Jul. 10, 2013 Rise Set
Actual Time 5:22 AM CST 6:02 PM CST
Civil Twilight 4:59 AM CST 6:25 PM CST
Nautical Twilight 4:32 AM CST 6:52 PM CST
Astronomical Twilight 4:05 AM CST 7:19 PM CST
Moon 7:10 AM CST (7/10) 7:48 PM CST (7/10)
Length of Visible Light 13h 25m
Length of Day
12h 40m
Waxing Crescent, 5% of the Moon is Illuminated
Jul 10
Waxing Crescent
Jul 15
First Quarter
Jul 22
Full
Jul 29
Last Quarter
Aug 6
New

Hourly Weather History & Observations

Time (CST) Temp. Heat Index Dew Point Humidity Pressure Visibility Wind Dir Wind Speed Gust Speed Precip Events Conditions
12:00 AM 72 °F - 63 °F 65% 29.82 in 12 mi ESE 9.2 mph - -   Scattered Clouds
12:00 AM 71.6 °F - 62.6 °F 73% 30.02 in 6.2 mi East 9.2 mph - N/A   Partly Cloudy
1:00 AM 71.6 °F - 62.6 °F 73% 30.01 in 6.2 mi ESE 13.8 mph - N/A   Partly Cloudy
2:00 AM 71.6 °F - 62.6 °F 73% 29.99 in 6.2 mi East 9.2 mph - N/A   Scattered Clouds
3:00 AM 72 °F - 62 °F 64% 29.82 in 12 mi ESE 11.5 mph - -   Mostly Cloudy
3:00 AM 71.6 °F - 62.6 °F 73% 29.98 in 6.2 mi ESE 11.5 mph - N/A   Scattered Clouds
4:00 AM 71.6 °F - 62.6 °F 73% 29.97 in 6.2 mi SE 5.8 mph - N/A   Scattered Clouds
5:00 AM 69.8 °F - 62.6 °F 78% 29.99 in 6.2 mi NE 4.6 mph - N/A   Scattered Clouds
6:00 AM 70 °F - 62 °F 70% 29.85 in 12 mi WNW 4.6 mph - -   Partly Cloudy
6:00 AM 69.8 °F - 62.6 °F 78% 30.01 in 6.2 mi WNW 4.6 mph - N/A   Mostly Cloudy
7:00 AM 75.2 °F - 62.6 °F 65% 30.00 in 6.2 mi ENE 4.6 mph - N/A   Mostly Cloudy
8:00 AM 75.2 °F - 62.6 °F 65% 30.02 in 6.2 mi East 9.2 mph - N/A   Scattered Clouds
9:00 AM 80 °F - 61 °F 42% 29.85 in 12 mi East 10.4 mph - -   Scattered Clouds
9:00 AM 78.8 °F - 60.8 °F 54% 30.04 in 6.2 mi East 10.4 mph - N/A   Scattered Clouds
10:00 AM 80.6 °F 81.5 °F 60.8 °F 51% 30.03 in 6.2 mi East 8.1 mph - N/A   Scattered Clouds
11:00 AM 82.4 °F 82.9 °F 60.8 °F 48% 30.02 in 6.2 mi ESE 6.9 mph - N/A   Scattered Clouds
12:00 PM 85 °F - 60 °F 33% 29.81 in 12 mi ENE 6.9 mph - -   Partly Cloudy
12:00 PM 84.2 °F 84.4 °F 60.8 °F 45% 30.00 in 6.2 mi ENE 6.9 mph - N/A   Scattered Clouds
12:25 PM 78.8 °F - 69.8 °F 74% 30.00 in 6.2 mi WSW 13.8 mph - N/A   Scattered Clouds
1:00 PM 77.0 °F - 69.8 °F 78% 29.99 in 6.2 mi WSW 11.5 mph - N/A   Partly Cloudy
2:00 PM 78.8 °F - 69.8 °F 74% 29.97 in 6.2 mi WSW 5.8 mph - N/A   Scattered Clouds
3:00 PM 76 °F - 70 °F 76% 29.78 in 12 mi WSW 15.0 mph - -   Mostly Cloudy
3:00 PM 77.0 °F - 69.8 °F 78% 29.97 in 6.2 mi WSW 15.0 mph - N/A   Scattered Clouds
4:00 PM 77.0 °F - 66.2 °F 69% 29.96 in 6.2 mi SW 15.0 mph - N/A   Mostly Cloudy
5:00 PM 71.6 °F - 66.2 °F 83% 29.98 in 6.2 mi SW 13.8 mph - N/A   Light Drizzle
6:00 PM 70 °F - 67 °F 86% 29.86 in 5 mi West 13.8 mph - - Fog Light Fog
6:00 PM 69.8 °F - 66.2 °F 88% 30.01 in 5.0 mi West 13.8 mph - N/A Fog Mostly Cloudy
7:00 PM 68.0 °F - 66.2 °F 94% 30.01 in 6.2 mi ENE 2.3 mph - N/A   Mostly Cloudy
8:00 PM 69.8 °F - 66.2 °F 88% 30.03 in 6.2 mi North 4.6 mph - N/A   Mostly Cloudy
9:00 PM 69 °F - 67 °F 90% 29.87 in 9 mi SW 2.3 mph - -   Mostly Cloudy
9:00 PM 69.8 °F - 66.2 °F 88% 30.04 in 6.2 mi SW 2.3 mph - N/A   Mostly Cloudy
10:00 PM 69.8 °F - 66.2 °F 88% 30.05 in 6.2 mi Calm Calm - N/A   Mostly Cloudy
11:00 PM 68.0 °F - 66.2 °F 94% 30.05 in 6.2 mi Calm Calm - N/A   Mostly Cloudy